Tracking 25710 objects as of 6-Jul-2022
HD Live streaming from Space Station
objects crossing your sky now

FLOCK 4A 20

Track FLOCK 4A 20 now!
10-day predictions
FLOCK 4A 20 is classified as:


NORAD ID: 44091
Int'l Code: 2019-018P
Perigee: 463.3 km
Apogee: 479.0 km
Inclination: 97.3 °
Period: 93.9 minutes
Semi major axis: 6842 km
RCS: Unknown
Launch date: April 1, 2019
Source: United States (US)
Launch site: SRIHARIKOTA (SRI)
aabbcc
Your satellite tracking list
Your tracking list is empty




NASA's NSSDC Master Catalog

Two Line Element Set (TLE):
1 44091U 19018P   22187.13891573  .00010541  00000-0  32246-3 0  9995
2 44091  97.3088 247.6510 0011500  58.3274 301.9089 15.33963285181584
Source of the keplerian elements: AFSPC